Torna al catalogo

ATLAS 5 CENTAUR DEB

AttivoHEO
NORAD 43999·DEBRIS·🇺🇸 United States

Lanciato Sep 17, 2014 da Cape Canaveral Space Force Station

Loading…

Prossimi Passaggi (prossime 24 ore)

TLE

AggiornatoSource: Space-Track

Epoca: Sep 7, 2026, 16:21 UTC

1 43999U 14055BE  26250.68181087 -.00000109  00000-0  00000-0 0  9994
2 43999  20.1143 142.8026 4697952 167.8882 209.2187  1.85335916 54236

Traccia ATLAS 5 CENTAUR DEB in tempo reale con AllMySat

Download on the App Store